Time[GMT],air_temperature[C](-3m),wind_speed[m/s](-4m),wind_gust[m/s](-4m),wind_direction[degrees](-4m),visibility[m](-3m)
2003-01-31 19:00,1.0,4.3,4.9, 44,2813
2003-01-31 20:00,1.0,3.4,4.0, 35,2798
2003-01-31 21:00,1.0,4.0,4.8, 40,2792
2003-01-31 22:00,0.8,4.4,5.3, 48,2829
2003-01-31 23:00,0.9,4.3,5.0, 38,2834
2003-02-01 00:00,0.9,5.1,6.0, 40,2766
2003-02-01 01:00,0.7,5.7,6.4, 35,2755
2003-02-01 02:00,0.4,6.5,7.6, 36,2731
2003-02-01 03:00,0.1,6.6,7.8, 37,2757
2003-02-01 04:00,-0.2,7.8,8.9, 31,2634
2003-02-01 05:00,-0.3,8.3,9.8, 21,2458
2003-02-01 06:00,-0.5,8.6,9.7, 13,2700
2003-02-01 07:00,-0.4,8.5,9.4, 14,2764
2003-02-01 08:00,-0.4,8.4,10.4, 13,2814
2003-02-01 09:00,-0.4,9.2,10.3, 11,2805
2003-02-01 10:00,-0.4,8.4,9.6, 24,2818
2003-02-01 11:00,-0.6,8.7,10.1, 21,2814
2003-02-01 12:00,-0.2,7.6,8.9, 15,2844
2003-02-01 13:00,-0.3,9.4,11.8, 28,2790
2003-02-01 14:00,-0.8,8.5,10.1, 20,2755
2003-02-01 15:00,-0.5,7.6,8.9, 21,2798
2003-02-01 16:00,0.0,8.4,9.3, 24,2832
2003-02-01 17:00,0.1,8.4,9.7, 25,2814
2003-02-01 18:00,0.4,7.9,9.0, 22,2836
2003-02-01 19:00,0.7,4.8,6.7, 30,2868
2003-02-01 20:00,0.8,7.2,8.8, 21,2839
2003-02-01 21:00,1.1,4.5,6.2, 21,2847
2003-02-01 22:00,1.1,5.0,6.1, 18,2831
2003-02-01 23:00,1.1,3.4,4.1, 28,2775
2003-02-02 00:00,1.3,5.0,6.0, 31,2535
2003-02-02 01:00,1.0,5.0,5.9, 31,2136
2003-02-02 02:00,0.9,6.5,8.1, 45,2092
2003-02-02 03:00,0.5,8.0,9.9, 43,2164
2003-02-02 04:00,0.4,8.4,9.8, 36,2604
2003-02-02 05:00,0.4,8.7,10.1, 37,2700
2003-02-02 06:00,0.3,10.4,11.9, 36,1687
2003-02-02 07:00,0.2,7.5,10.2, 39,1674
2003-02-02 08:00,0.3,9.2,10.9, 27,1481
2003-02-02 09:00,0.2,10.9,13.0, 22,1945
2003-02-02 10:00,0.4,11.0,13.4, 28, 857
2003-02-02 11:00,0.5,11.9,13.5, 26,1315
2003-02-02 12:00,0.5,9.5,11.8, 14,1739
2003-02-02 13:00,0.6,10.9,13.1, 18,1162
2003-02-02 14:00,0.6,11.9,14.4, 14,1869
2003-02-02 15:00,0.5,12.4,15.2,  7,2384
2003-02-02 16:00,0.6,12.4,14.6,  4,2712
2003-02-02 17:00,0.9,10.8,13.2,360,2779
2003-02-02 18:00,1.1,11.1,13.2,357,2483
2003-02-02 19:00,0.8,9.9,11.7,343,2682
2003-02-02 20:00,0.3,10.5,12.5,337,1743
2003-02-02 21:00,0.5,11.9,13.6,335,2882
2003-02-02 22:00,0.8,11.8,13.9,330,2921
2003-02-02 23:00,0.9,12.2,15.1,326,2263
2003-02-03 00:00,0.1,11.7,14.2,323,2152
2003-02-03 01:00,,,,,
2003-02-03 02:00,-0.1,14.2,17.4,327,2955
2003-02-03 03:00,-0.2,14.4,18.7,329,2957
2003-02-03 04:00,0.0,13.3,16.2,332,2933
2003-02-03 05:00,0.7,11.8,15.2,324,1882
2003-02-03 06:00,1.3,12.9,16.4,312,2836
2003-02-03 07:00,,,,,
2003-02-03 08:00,2.2,12.4,15.3,304,2910
2003-02-03 09:00,2.1,11.3,14.0,300,2919
2003-02-03 10:00,1.5,11.6,14.7,297,2915
2003-02-03 11:00,1.3,10.1,13.4,298,2936
2003-02-03 12:00,0.9,9.1,12.2,303,2908
2003-02-03 13:00,0.3,12.5,14.9,297,2888
2003-02-03 14:00,0.3,11.9,15.2,301,2838
2003-02-03 15:00,0.7,12.6,15.7,307,2704
2003-02-03 16:00,1.0,8.1,9.9,326,2901
2003-02-03 17:00,2.0,6.5,8.9,305,2904
2003-02-03 18:00,3.0,6.2,8.9,306,2910
2003-02-03 19:00,3.4,5.5,6.9,294,2911
2003-02-03 20:00,3.6,6.4,7.8,285,2917
2003-02-03 21:00,3.7,6.3,9.0,292,2933
2003-02-03 22:00,2.8,5.8,8.1,294,2941
2003-02-03 23:00,2.5,7.2,9.4,300,2951
2003-02-04 00:00,1.6,3.8,5.5,342,2947
2003-02-04 01:00,1.9,7.5,9.5,334,2951
2003-02-04 02:00,1.3,5.9,7.3,354,2949
2003-02-04 03:00,0.8,3.6,4.6,320,2950
2003-02-04 04:00,0.6,1.8,3.4,290,2956
2003-02-04 05:00,0.4,2.9,3.5, 17,2956
2003-02-04 06:00,0.2,3.4,3.8, 39,2953
2003-02-04 07:00,-0.3,3.4,3.8, 71,2950
2003-02-04 08:00,-0.3,3.3,4.2, 79,2956
2003-02-04 09:00,-0.3,2.2,2.6, 81,2956
2003-02-04 10:00,-0.4,4.2,4.8, 63,2953
2003-02-04 11:00,-0.3,6.3,7.5, 78,2623
2003-02-04 12:00,0.9,7.0,8.3,113,2932
2003-02-04 13:00,1.5,7.8,9.6,126,2752
2003-02-04 14:00,1.5,9.7,11.6,120,2822
2003-02-04 15:00,2.0,10.8,13.0,121,2541
2003-02-04 16:00,2.2,8.9,12.1,123,2657
2003-02-04 17:00,2.4,8.4,10.5,117,2593
2003-02-04 18:00,2.5,8.6,10.7,115,2440
2003-02-04 19:00,3.0,10.8,13.2,109,2306
2003-02-04 20:00,3.4,9.7,11.1,109,2044
2003-02-04 21:00,4.1,7.7,9.5,129, 950
2003-02-04 22:00,4.7,9.2,10.5,162,1149
2003-02-04 23:00,4.5,9.6,11.2,196,1113
2003-02-05 00:00,4.3,9.4,11.3,218,1129
2003-02-05 01:00,3.4,9.5,11.2,223,1836
2003-02-05 02:00,3.0,10.5,12.7,251,2823
2003-02-05 03:00,2.0,8.6,10.4,248,2881
2003-02-05 04:00,2.2,10.1,12.1,248,2909
2003-02-05 05:00,1.7,10.7,13.7,248,2897
2003-02-05 06:00,1.9,10.5,14.0,235,2855
2003-02-05 07:00,1.9,10.8,14.7,244,2889
2003-02-05 08:00,1.4,12.9,15.6,244,2872
2003-02-05 09:00,0.9,13.6,16.6,244,2871
2003-02-05 10:00,0.5,12.2,15.0,249,2911
2003-02-05 11:00,0.1,13.6,16.2,246,2912
2003-02-05 12:00,-0.4,11.6,14.5,257,2890
2003-02-05 13:00,-0.6,10.4,12.9,253,2582
2003-02-05 14:00,-0.8,10.8,13.3,251,2853
2003-02-05 15:00,-0.5,10.4,13.5,262,2903
2003-02-05 16:00,-0.6,8.4,10.1,280,2811
2003-02-05 17:00,-0.5,8.1,11.6,291,2819
2003-02-05 18:00,-0.5,8.1,11.3,283,2919
2003-02-05 19:00,-0.5,7.9,10.3,296,2931
2003-02-05 20:00,-0.7,9.2,11.8,295,2927
2003-02-05 21:00,-1.7,10.2,13.4,287,2936
2003-02-05 22:00,-2.7,10.9,13.2,294,2945
2003-02-05 23:00,-3.5,7.4,11.0,297,2953
2003-02-06 00:00,-4.3,8.6,10.8,295,2951
2003-02-06 01:00,-5.1,11.2,14.0,294,2935
2003-02-06 02:00,-5.9,6.7,9.0,291,2952
2003-02-06 03:00,-6.7,9.6,12.7,303,2948
2003-02-06 04:00,-7.6,8.3,11.4,294,2951
2003-02-06 05:00,-7.8,7.5,9.9,277,2953
2003-02-06 06:00,-8.1,6.3,9.8,277,2955
2003-02-06 07:00,-8.5,6.2,8.2,288,2954
2003-02-06 08:00,-8.7,6.6,8.6,298,2950
2003-02-06 09:00,-9.2,5.9,7.8,297,2954
2003-02-06 10:00,-9.6,5.1,6.7,303,2953
2003-02-06 11:00,-9.8,5.0,6.7,290,2955
2003-02-06 12:00,-10.3,5.1,6.4,286,2954
2003-02-06 13:00,-9.9,4.8,6.5,286,2943
2003-02-06 14:00,-8.7,7.7,10.5,279,2898
2003-02-06 15:00,-8.1,7.2,9.1,293,2348
2003-02-06 16:00,-7.2,7.6,9.5,287,2944
2003-02-06 17:00,-6.3,8.3,10.7,311,2736
2003-02-06 18:00,-5.5,7.5,9.0,297,2690
2003-02-06 19:00,-4.5,4.8,8.3,277,2829
2003-02-06 20:00,-4.1,7.5,10.0,234,2498
2003-02-06 21:00,-3.7,7.8,9.7,234,2917
2003-02-06 22:00,-3.5,7.4,9.2,249,2954
2003-02-06 23:00,-3.2,5.8,7.2,259,2956
2003-02-07 00:00,-3.1,4.5,6.3,246,2956
2003-02-07 01:00,-2.5,6.5,7.9,253,2956
2003-02-07 02:00,-2.3,5.4,6.4,245,2956
2003-02-07 03:00,-2.4,3.6,4.6,265,2954
2003-02-07 04:00,-2.4,4.7,5.6,269,2956
2003-02-07 05:00,-1.8,5.6,6.7,255,2945
2003-02-07 06:00,-1.9,4.0,5.1,258,2956
2003-02-07 07:00,-1.7,4.1,4.9,255,2953
2003-02-07 08:00,-1.4,3.9,4.6,251,2953
2003-02-07 09:00,-0.9,5.5,6.6,239,2950
2003-02-07 10:00,-1.7,4.8,6.4,245,1919
2003-02-07 11:00,-2.7,3.5,4.2,280,1869
2003-02-07 12:00,-3.3,1.7,2.5,308,1694
2003-02-07 13:00,-3.5,1.1,1.5,314,1433
2003-02-07 14:00,-3.5,0.9,1.3,335,1417
2003-02-07 15:00,-3.2,2.1,2.8,  2,1495
2003-02-07 16:00,-3.1,2.8,3.5,353,1032
2003-02-07 17:00,-2.7,3.9,4.9, 20,1844
2003-02-07 18:00,-2.6,4.3,5.2, 29,1252
2003-02-07 19:00,-2.8,5.1,6.0, 10,2956
2003-02-07 20:00,-2.8,5.6,6.3, 22,2958
2003-02-07 21:00,-2.7,6.7,7.9, 14,2957
2003-02-07 22:00,-2.8,8.2,9.3,360,2957
2003-02-07 23:00,-3.0,8.5,10.1,  2,2957
2003-02-08 00:00,-3.1,9.1,10.1,  6,2957
2003-02-08 01:00,-3.0,8.0,10.0,  5,2957
2003-02-08 02:00,-3.1,8.9,10.6,349,2957
2003-02-08 03:00,-3.6,9.0,10.7,341,2957
2003-02-08 04:00,-4.5,9.9,12.1,342,2957
2003-02-08 05:00,-5.5,10.1,13.1,336,2957
2003-02-08 06:00,-6.4,11.1,13.4,333,2958
2003-02-08 07:00,-7.3,8.5,10.7,332,2958
2003-02-08 08:00,-8.4,7.0,9.4,327,2958
2003-02-08 09:00,-8.8,6.6,8.6,309,2958
2003-02-08 10:00,-9.0,5.8,7.8,303,2958
2003-02-08 11:00,-10.1,4.7,6.1,282,2958
2003-02-08 12:00,-10.5,5.7,7.4,281,2958
2003-02-08 13:00,-10.4,5.8,7.1,278,2958
2003-02-08 14:00,-10.1,5.2,6.4,274,2958
2003-02-08 15:00,-8.4,4.8,6.1,265,2957
2003-02-08 16:00,-7.0,8.0,9.6,260,2957
2003-02-08 17:00,-6.3,5.8,8.2,253,2957
2003-02-08 18:00,-5.4,6.0,7.6,245,2957
2003-02-08 19:00,-5.1,7.7,8.9,211,2957
2003-02-08 20:00,-4.9,7.6,9.0,217,2956
2003-02-08 21:00,-4.6,7.0,8.3,236,2950
2003-02-08 22:00,-4.1,6.5,8.4,237,2957
2003-02-08 23:00,-2.6,6.4,7.6,236,2957
2003-02-09 00:00,-2.6,5.8,6.7,250,2958
2003-02-09 01:00,-2.5,4.6,5.4,243,2957
2003-02-09 02:00,-0.9,9.3,10.6,241,2950
2003-02-09 03:00,-1.5,7.1,8.9,254,2937
2003-02-09 04:00,-1.7,8.8,10.5,248,2944
2003-02-09 05:00,-2.5,6.5,8.3,253,2953
2003-02-09 06:00,-2.9,8.6,10.1,252,2952
2003-02-09 07:00,-3.7,6.6,8.6,250,2949
2003-02-09 08:00,-4.1,6.9,8.0,254,2954
2003-02-09 09:00,-4.1,5.5,6.7,247,2951
2003-02-09 10:00,-4.0,3.8,5.1,268,2954
2003-02-09 11:00,-4.6,3.9,4.7,275,2950
2003-02-09 12:00,-4.8,4.8,5.8,270,2940
2003-02-09 13:00,-4.3,5.7,6.8,256,2941
2003-02-09 14:00,-4.0,6.3,7.4,256,2924
2003-02-09 15:00,-3.3,5.6,6.4,230,2916
2003-02-09 16:00,-2.4,5.5,6.4,238,2912
2003-02-09 17:00,-1.7,5.8,6.9,227,2914
2003-02-09 18:00,-1.4,7.3,8.3,227,2891
2003-02-09 19:00,-1.0,6.9,8.2,229,2888
2003-02-09 20:00,-0.0,6.8,8.0,226,2873
2003-02-09 21:00,0.4,7.2,9.2,241,2930
2003-02-09 22:00,0.2,7.4,9.1,235,2944
2003-02-09 23:00,0.4,8.3,9.9,234,2934
2003-02-10 00:00,0.1,7.6,9.4,251,2949
2003-02-10 01:00,0.1,8.6,10.1,253,2941
2003-02-10 02:00,-2.2,7.3,8.7,327,2956
2003-02-10 03:00,-2.8,6.2,7.8,334,2956
2003-02-10 04:00,-3.6,4.8,6.0,330,2954
2003-02-10 05:00,-4.0,3.7,5.4,352,2954
2003-02-10 06:00,-4.4,3.8,5.4,359,2957
2003-02-10 07:00,-4.5,4.5,6.0, 10,2956
2003-02-10 08:00,-4.8,2.6,4.6,357,2957
2003-02-10 09:00,-4.8,1.7,3.1, 98,2958
2003-02-10 10:00,-4.7,2.4,3.7, 94,2955
2003-02-10 11:00,-4.3,2.3,2.9, 98,2954
2003-02-10 12:00,-2.3,5.4,6.7,140,2952
2003-02-10 13:00,-0.9,6.2,7.8,189,2934
2003-02-10 14:00,-1.0,5.7,6.9,211,2938
2003-02-10 15:00,-0.1,7.6,9.2,213,2894
2003-02-10 16:00,0.3,6.9,8.3,211,2889
2003-02-10 17:00,0.5,6.4,7.6,215,2900
2003-02-10 18:00,0.6,6.8,8.0,215,2892
2003-02-10 19:00,0.9,7.4,9.0,213,2882
2003-02-10 20:00,1.0,5.8,7.1,204,2895
2003-02-10 21:00,1.1,4.0,4.9,211,2893
2003-02-10 22:00,1.1,2.5,3.1,198,2915
2003-02-10 23:00,0.9,2.4,3.3,242,2942
2003-02-11 00:00,-0.0,3.2,3.7,281,2593
2003-02-11 01:00,-0.9,1.6,2.5,334, 971
2003-02-11 02:00,-1.2,0.0,0.8,347,2424
2003-02-11 03:00,-1.2,0.0,0.2,355,2851
2003-02-11 04:00,-1.4,3.3,4.1,314,2020
2003-02-11 05:00,-1.6,4.4,5.4,291,2780
2003-02-11 06:00,-1.8,5.7,6.9,282,2934
2003-02-11 07:00,-2.1,4.7,5.7,281,2924
2003-02-11 08:00,-2.2,3.4,4.5,270,2957
2003-02-11 09:00,-2.2,5.1,6.5,252,2956
2003-02-11 10:00,-2.5,5.2,6.6,263,2957
2003-02-11 11:00,-2.9,8.9,12.3,290,2934
2003-02-11 12:00,-5.0,11.1,14.1,300,2947
2003-02-11 13:00,-7.8,10.6,12.4,319,2945
2003-02-11 14:00,-9.3,12.0,14.7,305,2901
2003-02-11 15:00,-9.8,10.4,13.2,315,2924
2003-02-11 16:00,-9.8,9.3,12.0,325,2929
2003-02-11 17:00,-9.9,7.5,10.4,307,2917
2003-02-11 18:00,-9.3,7.2,9.2,312,2951
2003-02-11 19:00,-8.7,6.9,9.6,325,2952
2003-02-11 20:00,-8.4,4.3,5.8,322,2953
2003-02-11 21:00,-8.4,3.8,5.9,298,2948
2003-02-11 22:00,-8.6,5.6,7.2,282,2955
2003-02-11 23:00,-9.0,5.1,6.4,274,2956
2003-02-12 00:00,-9.2,2.8,5.2,328,2956
2003-02-12 01:00,-9.3,4.2,5.4,273,2956
2003-02-12 02:00,-9.4,2.9,4.1,290,2954
2003-02-12 03:00,-9.3,0.3,1.8, 85,2954
2003-02-12 04:00,-8.8,0.5,2.0,153,2957
2003-02-12 05:00,-8.7,1.8,3.6, 69,2956
2003-02-12 06:00,-8.3,1.3,3.5, 82,2957
2003-02-12 07:00,-8.0,3.1,4.3, 67,2958
2003-02-12 08:00,-8.1,0.0,1.0, 32,2957
2003-02-12 09:00,-7.5,2.7,4.9,273,2957
2003-02-12 10:00,-8.3,2.4,4.3,295,2956
2003-02-12 11:00,-8.5,0.1,1.8,310,2957
2003-02-12 12:00,-7.8,1.1,2.4,341,2944
2003-02-12 13:00,-7.4,3.2,4.8, 31,2638
2003-02-12 14:00,-7.5,3.1,4.4, 57,1499
2003-02-12 15:00,-7.4,4.8,6.0, 32,2959
2003-02-12 16:00,-7.0,7.7,9.0, 16,2959
2003-02-12 17:00,-7.0,7.7,9.3, 21,2959
2003-02-12 18:00,-6.6,8.1,9.4,  6,2959
2003-02-12 19:00,-6.0,6.3,7.8,340,2959
2003-02-12 20:00,-6.1,9.7,14.7,302,2959
2003-02-12 21:00,-6.9,10.1,11.6,296,2959
2003-02-12 22:00,-6.5,6.7,8.7,304,2958
2003-02-12 23:00,-6.1,8.7,10.8,286,2958
2003-02-13 00:00,-6.4,9.2,12.1,312,2957
2003-02-13 01:00,-8.0,8.6,12.1,307,2958
2003-02-13 02:00,-8.8,8.7,10.8,305,2957
2003-02-13 03:00,-9.7,9.4,11.7,306,2958
2003-02-13 04:00,-10.5,9.6,11.9,305,2957
2003-02-13 05:00,-11.0,10.1,12.4,291,2958
2003-02-13 06:00,-12.5,7.4,9.6,287,2958
2003-02-13 07:00,-13.2,6.7,8.5,294,2958
2003-02-13 08:00,-14.1,6.9,8.9,287,2958
2003-02-13 09:00,-14.0,8.7,11.9,291,2958
2003-02-13 10:00,-14.9,7.3,9.1,297,2958
2003-02-13 11:00,-14.8,8.4,11.1,297,2958
2003-02-13 12:00,-14.9,8.1,10.6,282,2958
2003-02-13 13:00,-14.4,10.7,13.1,287,2959
2003-02-13 14:00,-14.4,8.6,10.6,299,2664
2003-02-13 15:00,-14.6,11.4,14.1,290,2035
2003-02-13 16:00,-14.8,10.9,12.9,312,1928
2003-02-13 17:00,-14.7,12.6,15.9,305,2074
2003-02-13 18:00,-14.1,12.2,15.9,302,1686
2003-02-13 19:00,-14.2,8.0,10.8,300,2371
2003-02-13 20:00,-14.0,8.7,12.2,296,2749
2003-02-13 21:00,-13.9,9.6,11.8,309,2863
2003-02-13 22:00,-14.4,7.5,10.7,307,2956
2003-02-13 23:00,-15.3,6.4,9.4,324,2958
2003-02-14 00:00,-15.2,8.2,10.2,322,2956
2003-02-14 01:00,-15.1,11.4,13.9,329,2728
2003-02-14 02:00,-16.4,9.3,12.8,326,2463
2003-02-14 03:00,-17.6,8.6,10.9,320,2373
2003-02-14 04:00,-17.9,7.1,10.3,310,2122
2003-02-14 05:00,-18.3,8.5,10.6,301, 994
2003-02-14 06:00,-18.6,7.3,9.6,286,1228
2003-02-14 07:00,-18.8,8.0,10.1,287, 977
2003-02-14 08:00,-19.8,6.8,9.1,291, 989
2003-02-14 09:00,-19.9,7.3,8.7,295, 515
2003-02-14 10:00,-20.4,6.9,8.6,294, 414
2003-02-14 11:00,-20.0,6.8,9.8,293, 226
2003-02-14 12:00,-21.2,6.1,9.1,286, 731
2003-02-14 13:00,-20.6,5.2,8.0,286, 797
2003-02-14 14:00,-19.9,5.0,6.9,301, 659
2003-02-14 15:00,-17.6,9.5,13.9,302,1196
2003-02-14 16:00,-16.9,10.0,12.3,285,2264
2003-02-14 17:00,-16.2,6.7,10.1,287,2000
2003-02-14 18:00,-14.3,4.7,10.3,277,1688
2003-02-14 19:00,-13.4,10.0,13.3,293,2135
2003-02-14 20:00,-12.8,9.5,11.5,291,2932
2003-02-14 21:00,-13.0,7.4,9.9,310,2950
2003-02-14 22:00,-12.7,7.7,9.8,306,2957
2003-02-14 23:00,-13.4,6.3,9.1,323,2958
2003-02-15 00:00,-13.7,8.6,12.0,332,2958
2003-02-15 01:00,-14.0,7.9,9.8,333,2958
2003-02-15 02:00,-14.3,8.7,10.9,329,2957
2003-02-15 03:00,-13.8,3.6,7.0,311,2911
2003-02-15 04:00,-14.9,9.2,11.3,310,2935
2003-02-15 05:00,-15.6,8.0,9.7,310,2954
2003-02-15 06:00,-16.0,7.0,8.4,298,2936
2003-02-15 07:00,-16.2,7.4,8.8,299,2901
2003-02-15 08:00,-16.1,7.7,9.4,310,2631
2003-02-15 09:00,-16.6,7.1,9.0,307,2771
2003-02-15 10:00,-16.9,6.0,7.6,295,2596
2003-02-15 11:00,-17.6,5.2,6.8,302,2260
2003-02-15 12:00,-17.3,5.8,7.5,314,2582
2003-02-15 13:00,-17.2,6.3,7.7,314,2427
2003-02-15 14:00,,,,,
2003-02-15 15:00,-14.7,3.1,5.5,307,1504
2003-02-15 16:00,-17.1,7.4,9.8,318,2507
2003-02-15 17:00,-16.2,7.5,10.4,315,2077
2003-02-15 18:00,-16.2,7.3,9.9,313,1829
2003-02-15 19:00,-15.2,8.5,10.4,308,2506
2003-02-15 20:00,-13.7,3.8,4.9,254,2953
2003-02-15 21:00,-13.3,9.0,11.9,311,2956
2003-02-15 22:00,-13.6,8.2,10.5,303,2956
2003-02-15 23:00,-13.7,8.2,10.5,306,2958
2003-02-16 00:00,-14.5,8.8,11.3,311,2958
2003-02-16 01:00,,,,,
2003-02-16 02:00,,,,,
2003-02-16 03:00,,,,,
2003-02-16 04:00,-1.5,0.3,1.8,100,  60
2003-02-16 05:00,-18.4,6.5,8.9,302,2956
2003-02-16 06:00,-18.2,6.5,8.8,317,2958
2003-02-16 07:00,-17.4,8.0,9.5,322,2958
2003-02-16 08:00,-17.2,7.0,10.5,324,2958
2003-02-16 09:00,-17.7,8.1,10.5,332,2958
2003-02-16 10:00,-17.8,7.3,9.8,344,2958
2003-02-16 11:00,-16.9,9.1,12.3,343,2958
2003-02-16 12:00,-17.4,10.4,12.2,339,2958
2003-02-16 13:00,-16.7,10.0,12.0,348,2959
2003-02-16 14:00,-14.7,3.8,7.8,195,2957
2003-02-16 15:00,-15.9,6.9,9.0,359,2959
2003-02-16 16:00,-15.5,5.5,7.5,346,2959
2003-02-16 17:00,-14.1,4.0,5.6,347,2959
2003-02-16 18:00,-13.1,4.7,6.3,339,2958
2003-02-16 19:00,-11.9,4.3,6.0,323,2954
2003-02-16 20:00,-10.9,4.6,6.9,323,2956
2003-02-16 21:00,-10.5,6.3,7.9,351,2958
2003-02-16 22:00,-10.5,5.5,7.7,337,2955
2003-02-16 23:00,-10.1,5.9,7.9,345,2957
2003-02-17 00:00,-10.0,6.2,7.8,353,2957
2003-02-17 01:00,-10.1,5.4,7.0,345,2958
2003-02-17 02:00,-9.9,6.0,7.9,  4,2957
2003-02-17 03:00,-10.4,6.9,9.1, 13,2958
2003-02-17 04:00,-10.8,7.9,9.9, 31,2958
2003-02-17 05:00,,,,,
2003-02-17 06:00,-12.4,4.3,6.0, 58,2957
2003-02-17 07:00,-12.5,4.8,7.2, 52,2957
2003-02-17 08:00,-12.3,6.0,7.3, 40,2958
2003-02-17 09:00,-12.4,6.2,7.9, 53,2958
2003-02-17 10:00,-12.7,6.6,8.1, 48,2958
2003-02-17 11:00,-12.7,5.6,7.0, 52,2958
2003-02-17 12:00,-12.8,5.3,7.2, 57,2958
2003-02-17 13:00,-12.2,6.0,8.0, 51,2958
2003-02-17 14:00,-12.2,6.3,8.4, 51,2958
2003-02-17 15:00,-12.0,5.5,8.2, 47,2957
2003-02-17 16:00,-12.0,5.2,6.6, 47,2958
2003-02-17 17:00,-11.3,4.7,6.5, 31,2957
2003-02-17 18:00,-9.3,3.0,7.9, 59,2957
2003-02-17 19:00,-9.9,7.8,9.4, 35,2956
2003-02-17 20:00,-8.9,9.1,10.6, 30,2957
2003-02-17 21:00,-7.6,2.7,6.1,110,2944
2003-02-17 22:00,-7.4,4.1,10.4, 93,2942
2003-02-17 23:00,-7.7,8.8,10.2, 41,2955
2003-02-18 00:00,-8.1,8.4,10.3, 45,2954
2003-02-18 01:00,-7.4,9.4,11.3, 37,2956
2003-02-18 02:00,-7.1,9.2,11.2, 34,2952
2003-02-18 03:00,-7.1,9.5,11.4, 42,2947
2003-02-18 04:00,-6.9,8.9,10.7, 34,2936
2003-02-18 05:00,-7.0,9.5,11.0, 34,2947
2003-02-18 06:00,-6.9,9.2,10.6, 32,2950
2003-02-18 07:00,-6.7,10.0,11.5, 30,2939
2003-02-18 08:00,-7.0,10.5,12.0, 32,2957
2003-02-18 09:00,-7.2,10.4,12.1, 28,2954
2003-02-18 10:00,-6.0,8.1,10.8, 41,2291
2003-02-18 11:00,-7.2,9.7,11.5, 26,2957
2003-02-18 12:00,-7.4,10.1,11.5, 26,2951
2003-02-18 13:00,-7.6,9.7,11.3, 23,2954
2003-02-18 14:00,-7.2,10.6,12.2, 27,2951
2003-02-18 15:00,-6.9,10.2,12.3, 24,2947
2003-02-18 16:00,-6.9,10.0,11.6, 15,2931
2003-02-18 17:00,-6.6,10.3,12.5, 17,2907
2003-02-18 18:00,-6.2,10.4,12.4, 21,2859
2003-02-18 19:00,-6.0,9.3,11.4, 23,2782
2003-02-18 20:00,-5.6,8.9,10.5, 20,2828
2003-02-18 21:00,,,,,
2003-02-18 22:00,-5.3,7.7,9.1, 16,2814
2003-02-18 23:00,-4.9,8.0,9.0, 27,2804
2003-02-19 00:00,-4.6,7.2,8.5, 27,2831
2003-02-19 01:00,-4.2,7.1,8.4, 35,2739
2003-02-19 02:00,-4.1,5.5,6.6, 38,2601
2003-02-19 03:00,,,,,
2003-02-19 04:00,-4.1,4.9,5.9, 42,2558
2003-02-19 05:00,-4.0,4.2,5.3, 23,2423
2003-02-19 06:00,-4.1,4.3,5.2, 11,2394
2003-02-19 07:00,-4.1,4.6,5.6, 18,2346
2003-02-19 08:00,-4.1,4.4,5.8, 21,2261
2003-02-19 09:00,-4.0,3.2,4.5, 26,2252
2003-02-19 10:00,-3.9,3.1,4.1, 55,2194
2003-02-19 11:00,-4.1,0.8,1.7, 62,2162
2003-02-19 12:00,-4.5,0.2,1.1,306,2166
2003-02-19 13:00,-4.2,1.3,2.1,334,2071
2003-02-19 14:00,-3.9,0.0,0.4,230,1887
2003-02-19 15:00,-3.3,1.0,1.5,230,1140
2003-02-19 16:00,-3.0,2.2,3.0,219, 203
2003-02-19 17:00,-2.6,5.1,6.2,216, 106
2003-02-19 18:00,-2.5,4.5,5.5,219, 138
2003-02-19 19:00,-1.7,5.8,6.9,220,2847
2003-02-19 20:00,-1.4,3.7,4.6,222,2936
2003-02-19 21:00,-1.1,0.5,1.7,222,2953
2003-02-19 22:00,-0.1,4.2,4.9,210,2941
2003-02-19 23:00,0.5,6.6,8.0,201,2819
2003-02-20 00:00,0.6,6.9,8.0,202,2764
2003-02-20 01:00,0.8,7.1,8.2,206,2759
2003-02-20 02:00,0.9,6.2,7.2,210,2703
2003-02-20 03:00,1.1,6.4,7.4,209,2445
2003-02-20 04:00,1.5,7.9,9.6,215,2439
2003-02-20 05:00,1.3,7.2,8.4,212,2340
2003-02-20 06:00,1.2,7.4,8.9,223,2233
2003-02-20 07:00,0.8,4.5,6.3,256,2436
2003-02-20 08:00,0.6,3.9,4.5,248,2348
2003-02-20 09:00,0.2,2.1,2.8,278,2310
2003-02-20 10:00,-0.1,2.0,2.3,289,2230
2003-02-20 11:00,-0.1,2.1,2.5,291,2472
2003-02-20 12:00,-0.3,2.4,3.0,280,2291
2003-02-20 13:00,0.1,3.3,3.9,272,2543
2003-02-20 14:00,0.9,4.1,5.6,270,2735
2003-02-20 15:00,2.2,5.3,6.9,299,2850
2003-02-20 16:00,2.4,4.4,6.0,283,2850
2003-02-20 17:00,2.8,4.9,7.1,289,2871
2003-02-20 18:00,4.3,3.2,5.6,309,2812
2003-02-20 19:00,4.5,6.3,7.2,281,2898
2003-02-20 20:00,4.6,2.6,4.2,295,2870
2003-02-20 21:00,2.4,6.5,7.8,241,2820
2003-02-20 22:00,1.6,5.3,6.5,245,2776
2003-02-20 23:00,1.6,5.7,6.4,243,2808
2003-02-21 00:00,1.4,4.8,5.3,241,2879
2003-02-21 01:00,1.1,4.7,5.9,216,2879
2003-02-21 02:00,1.2,4.1,4.5,233,2839
2003-02-21 03:00,1.3,4.9,5.3,238,2921
2003-02-21 04:00,1.5,4.6,5.3,239,2945
2003-02-21 05:00,1.3,4.8,6.1,257,2941
2003-02-21 06:00,,,,,
2003-02-21 07:00,0.9,5.6,6.2,256,2927
2003-02-21 08:00,0.8,5.3,6.5,242,2931
2003-02-21 09:00,1.0,5.5,6.7,262,2944
2003-02-21 10:00,0.9,5.8,6.8,261,2939
2003-02-21 11:00,0.7,4.6,5.4,252,2936
2003-02-21 12:00,1.0,3.6,4.2,237,2706
2003-02-21 13:00,0.8,3.0,3.9,230,2888
2003-02-21 14:00,1.0,2.3,3.0,233,2869
2003-02-21 15:00,0.9,4.0,4.8,208,2874
2003-02-21 16:00,1.3,4.5,5.0,209,2858
2003-02-21 17:00,1.2,4.1,5.1,215,2849
2003-02-21 18:00,2.2,4.5,5.2,227,2855
2003-02-21 19:00,1.9,4.8,6.0,203,2820
2003-02-21 20:00,2.0,4.2,5.0,233,2786
2003-02-21 21:00,2.4,5.1,6.2,210,2794
2003-02-21 22:00,1.4,3.2,4.2,239,2811
2003-02-21 23:00,1.3,4.1,4.7,220,2716
2003-02-22 00:00,2.2,1.5,2.6,210,2758
2003-02-22 01:00,1.4,1.1,1.7, 89,2709
2003-02-22 02:00,1.2,0.4,1.7,144,2629
2003-02-22 03:00,1.0,0.6,1.2,169,2583
2003-02-22 04:00,1.1,1.7,2.0,134,2536
2003-02-22 05:00,0.9,0.8,2.1,102,2451
2003-02-22 06:00,-0.2,2.0,2.8,  5,2476
2003-02-22 07:00,0.2,2.2,3.1, 43,2518
2003-02-22 08:00,-0.1,2.5,2.9, 20,2536
2003-02-22 09:00,-0.0,3.2,3.7, 27,2822
2003-02-22 10:00,0.1,5.2,5.9, 23,2801
2003-02-22 11:00,-0.1,6.0,6.7, 23,2751
2003-02-22 12:00,-0.2,5.6,6.3, 28,2638
2003-02-22 13:00,-0.1,7.0,8.0, 30,2628
2003-02-22 14:00,-0.1,5.9,7.2, 32,2618
2003-02-22 15:00,0.1,3.3,5.0, 45,2588
2003-02-22 16:00,0.8,3.8,4.9, 57,2573
2003-02-22 17:00,0.9,3.8,4.4, 55,2423
2003-02-22 18:00,0.5,4.0,4.5, 28,2409
2003-02-22 19:00,1.3,4.1,4.9, 66,2086
2003-02-22 20:00,1.0,6.2,8.1, 81,2017
2003-02-22 21:00,0.9,5.5,6.5, 85,1755
2003-02-22 22:00,0.8,6.8,8.3, 79,1579
2003-02-22 23:00,0.4,6.8,8.2, 72,1784
2003-02-23 00:00,0.3,7.8,9.2, 82, 991
2003-02-23 01:00,-0.1,7.5,9.0, 85,1544
2003-02-23 02:00,0.4,9.5,12.3, 72,2202
2003-02-23 03:00,0.3,10.4,12.6, 55,2279
2003-02-23 04:00,-0.3,9.3,10.9, 40,1612
2003-02-23 05:00,-0.5,5.8,7.3, 43,2249
2003-02-23 06:00,-0.9,3.3,4.3, 42,2082
2003-02-23 07:00,-1.3,1.8,2.5, 51,2387
2003-02-23 08:00,-1.1,1.3,1.6, 56,2843
2003-02-23 09:00,-0.3,2.4,2.9, 70,2847
2003-02-23 10:00,0.0,1.9,2.3, 64,2661
2003-02-23 11:00,0.4,4.1,9.1, 62, 825
2003-02-23 12:00,0.6,6.0,7.9, 49,1859
2003-02-23 13:00,0.8,6.2,8.1, 57,1695
2003-02-23 14:00,0.9,6.3,7.4, 41,1021
2003-02-23 15:00,0.3,8.5,9.9, 25,2142
2003-02-23 16:00,1.2,8.4,10.4, 58,2394
2003-02-23 17:00,1.3,5.7,7.1, 64,1989
2003-02-23 18:00,1.0,4.2,5.9,  2,2580
2003-02-23 19:00,0.7,3.2,4.5,342,1507
2003-02-23 20:00,0.8,3.9,4.6,359, 851
2003-02-23 21:00,0.8,3.0,5.4,343, 724
2003-02-23 22:00,1.3,3.0,4.5,298,2482
2003-02-23 23:00,1.1,4.9,6.0,282,2939
2003-02-24 00:00,0.2,6.8,8.4,296,2849
2003-02-24 01:00,0.0,5.9,7.1,283,2924
2003-02-24 02:00,0.1,4.8,6.1,279,2933
2003-02-24 03:00,0.4,8.8,10.8,303,2608
2003-02-24 04:00,-1.0,9.3,12.4,316,2951
2003-02-24 05:00,-1.7,12.0,15.2,306,2927
2003-02-24 06:00,-2.5,12.7,18.2,297,2894
2003-02-24 07:00,-3.7,13.6,17.4,297,2839
2003-02-24 08:00,-4.6,12.4,16.0,288,2888
2003-02-24 09:00,-5.2,13.3,15.7,282,2890
2003-02-24 10:00,-6.2,10.1,12.4,289,2934
2003-02-24 11:00,-7.0,9.4,11.5,290,2942
2003-02-24 12:00,-7.4,6.8,8.6,268,2931
2003-02-24 13:00,-6.6,9.9,11.7,263,2901
2003-02-24 14:00,-5.7,9.2,12.5,252,2909
2003-02-24 15:00,-4.2,7.3,8.9,271,2924
2003-02-24 16:00,-2.8,8.1,10.7,271,2912
2003-02-24 17:00,-2.5,7.7,9.9,280,2908
2003-02-24 18:00,-2.4,6.7,9.0,313,2939
2003-02-24 19:00,-1.6,4.9,6.2,294,2933
2003-02-24 20:00,-1.2,3.7,5.0,317,2942
2003-02-24 21:00,-0.7,2.1,2.8,307,2940
2003-02-24 22:00,-1.3,2.2,2.9,  6,2953
2003-02-24 23:00,-1.2,3.3,4.2,274,2955
2003-02-25 00:00,-1.6,4.8,5.7,253,2954
2003-02-25 01:00,-2.5,4.0,5.5,230,2191
2003-02-25 02:00,-3.0,3.1,3.8,266,2476
2003-02-25 03:00,-3.0,3.0,3.9,278,2588
2003-02-25 04:00,-3.1,2.2,3.1,327,2928
2003-02-25 05:00,-3.1,2.8,3.5,319,2790
2003-02-25 06:00,-3.1,2.5,3.1,324,2953
2003-02-25 07:00,-3.9,5.1,6.0,337,2945
2003-02-25 08:00,-4.2,5.1,6.4,324,2956
2003-02-25 09:00,-4.5,5.9,7.4,330,2957
2003-02-25 10:00,-5.1,5.7,7.7,319,2954
2003-02-25 11:00,-5.6,7.8,9.7,306,2948
2003-02-25 12:00,-6.4,7.3,9.8,302,2902
2003-02-25 13:00,-7.0,8.9,11.2,323,1195
2003-02-25 14:00,-7.4,10.1,12.6,310,2814